#datetime,building,power
2022-09-06T00:00:00,mfh,10.74
2022-09-06T00:01:00,mfh,10.79
2022-09-06T00:02:00,mfh,11.89
2022-09-06T00:03:00,mfh,10.98
2022-09-06T00:04:00,mfh,10.28
2022-09-06T00:05:00,mfh,10.92
2022-09-06T00:06:00,mfh,10.27
2022-09-06T00:07:00,mfh,10.36
2022-09-06T00:08:00,mfh,10.36
2022-09-06T00:09:00,mfh,10.98
2022-09-06T00:10:00,mfh,11.00
2022-09-06T00:11:00,mfh,10.96
2022-09-06T00:12:00,mfh,10.89
2022-09-06T00:13:00,mfh,10.42
2022-09-06T00:14:00,mfh,10.33
2022-09-06T00:15:00,mfh,10.76
2022-09-06T00:16:00,mfh,10.72
2022-09-06T00:17:00,mfh,11.47
2022-09-06T00:18:00,mfh,10.91
2022-09-06T00:19:00,mfh,11.58
2022-09-06T00:20:00,mfh,10.34
2022-09-06T00:21:00,mfh,10.34
2022-09-06T00:22:00,mfh,10.25
2022-09-06T00:23:00,mfh,10.25
2022-09-06T00:24:00,mfh,10.15
2022-09-06T00:25:00,mfh,10.90
2022-09-06T00:26:00,mfh,12.50
2022-09-06T00:27:00,mfh,12.61
2022-09-06T00:28:00,mfh,12.22
2022-09-06T00:29:00,mfh,12.08
2022-09-06T00:30:00,mfh,11.66
2022-09-06T00:31:00,mfh,10.54
2022-09-06T00:32:00,mfh,10.53
2022-09-06T00:33:00,mfh,11.11
2022-09-06T00:34:00,mfh,11.03
2022-09-06T00:35:00,mfh,11.39
2022-09-06T00:36:00,mfh,11.16
2022-09-06T00:37:00,mfh,10.36
2022-09-06T00:38:00,mfh,10.31
2022-09-06T00:39:00,mfh,10.69
2022-09-06T00:40:00,mfh,10.23
2022-09-06T00:41:00,mfh,10.85
2022-09-06T00:42:00,mfh,11.05
2022-09-06T00:43:00,mfh,11.09
2022-09-06T00:44:00,mfh,11.01
2022-09-06T00:45:00,mfh,10.25
2022-09-06T00:46:00,mfh,10.48
2022-09-06T00:47:00,mfh,10.45
2022-09-06T00:48:00,mfh,10.42
2022-09-06T00:49:00,mfh,10.41
2022-09-06T00:50:00,mfh,10.99
2022-09-06T00:51:00,mfh,11.65
2022-09-06T00:52:00,mfh,11.19
2022-09-06T00:53:00,mfh,10.52
2022-09-06T00:54:00,mfh,10.50
2022-09-06T00:55:00,mfh,10.47
2022-09-06T00:56:00,mfh,10.37
2022-09-06T00:57:00,mfh,10.14
2022-09-06T00:58:00,mfh,10.79
2022-09-06T00:59:00,mfh,10.88
2022-09-06T01:00:00,mfh,10.82
2022-09-06T01:01:00,mfh,10.25
2022-09-06T01:02:00,mfh,10.18
2022-09-06T01:03:00,mfh,10.24
2022-09-06T01:04:00,mfh,10.33
2022-09-06T01:05:00,mfh,10.37
2022-09-06T01:06:00,mfh,11.68
2022-09-06T01:07:00,mfh,11.07
2022-09-06T01:08:00,mfh,11.00
2022-09-06T01:09:00,mfh,11.01
2022-09-06T01:10:00,mfh,11.02
2022-09-06T01:11:00,mfh,11.81
2022-09-06T01:12:00,mfh,10.98
2022-09-06T01:13:00,mfh,11.06
2022-09-06T01:14:00,mfh,11.15
2022-09-06T01:15:00,mfh,10.38
2022-09-06T01:16:00,mfh,10.45
2022-09-06T01:17:00,mfh,10.45
2022-09-06T01:18:00,mfh,10.38
2022-09-06T01:19:00,mfh,11.14
2022-09-06T01:20:00,mfh,10.98
2022-09-06T01:21:00,mfh,11.01
2022-09-06T01:22:00,mfh,11.18
2022-09-06T01:23:00,mfh,10.44
2022-09-06T01:24:00,mfh,10.84
2022-09-06T01:25:00,mfh,10.43
2022-09-06T01:26:00,mfh,10.32
2022-09-06T01:27:00,mfh,10.35
2022-09-06T01:28:00,mfh,11.04
2022-09-06T01:29:00,mfh,11.10
2022-09-06T01:30:00,mfh,10.85
2022-09-06T01:31:00,mfh,10.14
2022-09-06T01:32:00,mfh,11.75
2022-09-06T01:33:00,mfh,11.76
2022-09-06T01:34:00,mfh,11.73
2022-09-06T01:35:00,mfh,11.97
2022-09-06T01:36:00,mfh,10.85
2022-09-06T01:37:00,mfh,10.91
2022-09-06T01:38:00,mfh,10.90
2022-09-06T01:39:00,mfh,10.92
2022-09-06T01:40:00,mfh,10.22
2022-09-06T01:41:00,mfh,10.11
2022-09-06T01:42:00,mfh,10.08
2022-09-06T01:43:00,mfh,10.11
2022-09-06T01:44:00,mfh,10.86
2022-09-06T01:45:00,mfh,10.90
2022-09-06T01:46:00,mfh,11.16
2022-09-06T01:47:00,mfh,10.91
2022-09-06T01:48:00,mfh,11.08
2022-09-06T01:49:00,mfh,10.27
2022-09-06T01:50:00,mfh,10.63
2022-09-06T01:51:00,mfh,10.34
2022-09-06T01:52:00,mfh,11.13
2022-09-06T01:53:00,mfh,11.40
2022-09-06T01:54:00,mfh,11.15
2022-09-06T01:55:00,mfh,11.16
2022-09-06T01:56:00,mfh,10.45
2022-09-06T01:57:00,mfh,10.40
2022-09-06T01:58:00,mfh,10.47
2022-09-06T01:59:00,mfh,10.57
2022-09-06T02:00:00,mfh,11.80
2022-09-06T02:01:00,mfh,11.98
2022-09-06T02:02:00,mfh,10.50
2022-09-06T02:03:00,mfh,10.39
2022-09-06T02:04:00,mfh,10.60
2022-09-06T02:05:00,mfh,10.47
2022-09-06T02:06:00,mfh,11.06
2022-09-06T02:07:00,mfh,11.08
2022-09-06T02:08:00,mfh,11.00
2022-09-06T02:09:00,mfh,10.36
2022-09-06T02:10:00,mfh,10.30
2022-09-06T02:11:00,mfh,10.46
2022-09-06T02:12:00,mfh,10.46
2022-09-06T02:13:00,mfh,10.41
2022-09-06T02:14:00,mfh,10.97
2022-09-06T02:15:00,mfh,10.96
2022-09-06T02:16:00,mfh,10.97
2022-09-06T02:17:00,mfh,11.38
2022-09-06T02:18:00,mfh,10.39
2022-09-06T02:19:00,mfh,10.34
2022-09-06T02:20:00,mfh,10.45
2022-09-06T02:21:00,mfh,10.43
2022-09-06T02:22:00,mfh,11.13
2022-09-06T02:23:00,mfh,11.09
2022-09-06T02:24:00,mfh,11.37
2022-09-06T02:25:00,mfh,11.13
2022-09-06T02:26:00,mfh,10.38
2022-09-06T02:27:00,mfh,10.33
2022-09-06T02:28:00,mfh,10.32
2022-09-06T02:29:00,mfh,10.45
2022-09-06T02:30:00,mfh,11.08
2022-09-06T02:31:00,mfh,11.03
2022-09-06T02:32:00,mfh,11.02
2022-09-06T02:33:00,mfh,11.48
2022-09-06T02:34:00,mfh,10.45
2022-09-06T02:35:00,mfh,10.46
2022-09-06T02:36:00,mfh,10.26
2022-09-06T02:37:00,mfh,10.26
2022-09-06T02:38:00,mfh,10.25
2022-09-06T02:39:00,mfh,10.90
2022-09-06T02:40:00,mfh,12.49
2022-09-06T02:41:00,mfh,12.54
2022-09-06T02:42:00,mfh,12.54
2022-09-06T02:43:00,mfh,12.08
2022-09-06T02:44:00,mfh,12.11
2022-09-06T02:45:00,mfh,10.94
2022-09-06T02:46:00,mfh,10.47
2022-09-06T02:47:00,mfh,10.94
2022-09-06T02:48:00,mfh,10.82
2022-09-06T02:49:00,mfh,10.88
2022-09-06T02:50:00,mfh,10.87
2022-09-06T02:51:00,mfh,10.11
2022-09-06T02:52:00,mfh,10.11
2022-09-06T02:53:00,mfh,10.96
2022-09-06T02:54:00,mfh,10.11
2022-09-06T02:55:00,mfh,10.73
2022-09-06T02:56:00,mfh,10.78
2022-09-06T02:57:00,mfh,10.70
2022-09-06T02:58:00,mfh,10.99
2022-09-06T02:59:00,mfh,10.34
2022-09-06T03:00:00,mfh,10.30
2022-09-06T03:01:00,mfh,10.29
2022-09-06T03:02:00,mfh,11.09
2022-09-06T03:03:00,mfh,11.04
2022-09-06T03:04:00,mfh,11.07
2022-09-06T03:05:00,mfh,11.13
2022-09-06T03:06:00,mfh,11.17
2022-09-06T03:07:00,mfh,10.58
2022-09-06T03:08:00,mfh,10.49
2022-09-06T03:09:00,mfh,10.31
2022-09-06T03:10:00,mfh,10.25
2022-09-06T03:11:00,mfh,11.54
2022-09-06T03:12:00,mfh,10.89
2022-09-06T03:13:00,mfh,10.85
2022-09-06T03:14:00,mfh,10.91
2022-09-06T03:15:00,mfh,10.18
2022-09-06T03:16:00,mfh,10.30
2022-09-06T03:17:00,mfh,10.20
2022-09-06T03:18:00,mfh,10.24
2022-09-06T03:19:00,mfh,10.18
2022-09-06T03:20:00,mfh,11.37
2022-09-06T03:21:00,mfh,10.78
2022-09-06T03:22:00,mfh,10.78
2022-09-06T03:23:00,mfh,10.22
2022-09-06T03:24:00,mfh,10.58
2022-09-06T03:25:00,mfh,10.13
2022-09-06T03:26:00,mfh,10.12
2022-09-06T03:27:00,mfh,10.22
2022-09-06T03:28:00,mfh,10.91
2022-09-06T03:29:00,mfh,11.76
2022-09-06T03:30:00,mfh,11.80
2022-09-06T03:31:00,mfh,10.75
2022-09-06T03:32:00,mfh,10.25
2022-09-06T03:33:00,mfh,10.23
2022-09-06T03:34:00,mfh,10.22
2022-09-06T03:35:00,mfh,9.36
2022-09-06T03:36:00,mfh,9.97
2022-09-06T03:37:00,mfh,10.00
2022-09-06T03:38:00,mfh,10.01
2022-09-06T03:39:00,mfh,9.45
2022-09-06T03:40:00,mfh,9.48
2022-09-06T03:41:00,mfh,10.10
2022-09-06T03:42:00,mfh,9.23
2022-09-06T03:43:00,mfh,9.22
2022-09-06T03:44:00,mfh,10.54
2022-09-06T03:45:00,mfh,9.30
2022-09-06T03:46:00,mfh,9.29
2022-09-06T03:47:00,mfh,9.28
2022-09-06T03:48:00,mfh,9.29
2022-09-06T03:49:00,mfh,10.82
2022-09-06T03:50:00,mfh,11.70
2022-09-06T03:51:00,mfh,12.31
2022-09-06T03:52:00,mfh,11.69
2022-09-06T03:53:00,mfh,9.33
2022-09-06T03:54:00,mfh,9.70
2022-09-06T03:55:00,mfh,9.24
2022-09-06T03:56:00,mfh,9.25
2022-09-06T03:57:00,mfh,9.23
2022-09-06T03:58:00,mfh,9.90
2022-09-06T03:59:00,mfh,9.95
2022-09-06T04:00:00,mfh,9.98
2022-09-06T04:01:00,mfh,10.18
2022-09-06T04:02:00,mfh,9.42
2022-09-06T04:03:00,mfh,9.32
2022-09-06T04:04:00,mfh,10.36
2022-09-06T04:05:00,mfh,9.62
2022-09-06T04:06:00,mfh,10.50
2022-09-06T04:07:00,mfh,10.30
2022-09-06T04:08:00,mfh,10.20
2022-09-06T04:09:00,mfh,9.70
2022-09-06T04:10:00,mfh,9.69
2022-09-06T04:11:00,mfh,9.68
2022-09-06T04:12:00,mfh,9.85
2022-09-06T04:13:00,mfh,9.84
2022-09-06T04:14:00,mfh,10.88
2022-09-06T04:15:00,mfh,10.22
2022-09-06T04:16:00,mfh,10.75
2022-09-06T04:17:00,mfh,10.04
2022-09-06T04:18:00,mfh,9.33
2022-09-06T04:19:00,mfh,9.32
2022-09-06T04:20:00,mfh,9.27
2022-09-06T04:21:00,mfh,9.27
2022-09-06T04:22:00,mfh,10.39
2022-09-06T04:23:00,mfh,10.10
2022-09-06T04:24:00,mfh,10.52
2022-09-06T04:25:00,mfh,9.99
2022-09-06T04:26:00,mfh,9.25
2022-09-06T04:27:00,mfh,9.18
2022-09-06T04:28:00,mfh,9.17
2022-09-06T04:29:00,mfh,9.27
2022-09-06T04:30:00,mfh,10.01
2022-09-06T04:31:00,mfh,9.96
2022-09-06T04:32:00,mfh,9.98
2022-09-06T04:33:00,mfh,10.07
2022-09-06T04:34:00,mfh,9.49
2022-09-06T04:35:00,mfh,9.50
2022-09-06T04:36:00,mfh,9.39
2022-09-06T04:37:00,mfh,9.47
2022-09-06T04:38:00,mfh,9.38
2022-09-06T04:39:00,mfh,9.91
2022-09-06T04:40:00,mfh,9.93
2022-09-06T04:41:00,mfh,9.93
2022-09-06T04:42:00,mfh,9.25
2022-09-06T04:43:00,mfh,9.24
2022-09-06T04:44:00,mfh,9.36
2022-09-06T04:45:00,mfh,9.42
2022-09-06T04:46:00,mfh,9.47
2022-09-06T04:47:00,mfh,10.46
2022-09-06T04:48:00,mfh,11.17
2022-09-06T04:49:00,mfh,11.43
2022-09-06T04:50:00,mfh,11.07
2022-09-06T04:51:00,mfh,13.08
2022-09-06T04:52:00,mfh,19.77
2022-09-06T04:53:00,mfh,20.04
2022-09-06T04:54:00,mfh,21.01
2022-09-06T04:55:00,mfh,20.50
2022-09-06T04:56:00,mfh,22.83
2022-09-06T04:57:00,mfh,23.00
2022-09-06T04:58:00,mfh,22.90
2022-09-06T04:59:00,mfh,22.39
2022-09-06T05:00:00,mfh,20.69
2022-09-06T05:01:00,mfh,38.34
2022-09-06T05:02:00,mfh,41.69
2022-09-06T05:03:00,mfh,42.40
2022-09-06T05:04:00,mfh,42.79
2022-09-06T05:05:00,mfh,42.18
2022-09-06T05:06:00,mfh,42.27
2022-09-06T05:07:00,mfh,41.45
2022-09-06T05:08:00,mfh,41.35
2022-09-06T05:09:00,mfh,41.54
2022-09-06T05:10:00,mfh,41.23
2022-09-06T05:11:00,mfh,42.27
2022-09-06T05:12:00,mfh,43.80
2022-09-06T05:13:00,mfh,44.35
2022-09-06T05:14:00,mfh,44.54
2022-09-06T05:15:00,mfh,43.88
2022-09-06T05:16:00,mfh,45.04
2022-09-06T05:17:00,mfh,44.54
2022-09-06T05:18:00,mfh,44.77
2022-09-06T05:19:00,mfh,45.26
2022-09-06T05:20:00,mfh,45.11
2022-09-06T05:21:00,mfh,45.01
2022-09-06T05:22:00,mfh,44.98
2022-09-06T05:23:00,mfh,44.07
2022-09-06T05:24:00,mfh,44.04
2022-09-06T05:25:00,mfh,44.28
2022-09-06T05:26:00,mfh,44.18
2022-09-06T05:27:00,mfh,45.11
2022-09-06T05:28:00,mfh,45.29
2022-09-06T05:29:00,mfh,45.30
2022-09-06T05:30:00,mfh,45.43
2022-09-06T05:31:00,mfh,44.85
2022-09-06T05:32:00,mfh,44.75
2022-09-06T05:33:00,mfh,44.79
2022-09-06T05:34:00,mfh,45.17
2022-09-06T05:35:00,mfh,44.79
2022-09-06T05:36:00,mfh,45.45
2022-09-06T05:37:00,mfh,45.47
2022-09-06T05:38:00,mfh,45.93
2022-09-06T05:39:00,mfh,45.22
2022-09-06T05:40:00,mfh,45.03
2022-09-06T05:41:00,mfh,45.32
2022-09-06T05:42:00,mfh,44.72
2022-09-06T05:43:00,mfh,44.80
2022-09-06T05:44:00,mfh,45.36
2022-09-06T05:45:00,mfh,45.58
2022-09-06T05:46:00,mfh,45.74
2022-09-06T05:47:00,mfh,45.92
2022-09-06T05:48:00,mfh,44.98
2022-09-06T05:49:00,mfh,45.96
2022-09-06T05:50:00,mfh,46.08
2022-09-06T05:51:00,mfh,46.02
2022-09-06T05:52:00,mfh,46.70
2022-09-06T05:53:00,mfh,46.72
2022-09-06T05:54:00,mfh,46.68
2022-09-06T05:55:00,mfh,46.02
2022-09-06T05:56:00,mfh,45.25
2022-09-06T05:57:00,mfh,45.04
2022-09-06T05:58:00,mfh,45.05
2022-09-06T05:59:00,mfh,44.89
2022-09-06T06:00:00,mfh,45.68
2022-09-06T06:01:00,mfh,50.01
2022-09-06T06:02:00,mfh,51.54
2022-09-06T06:03:00,mfh,51.81
2022-09-06T06:04:00,mfh,51.66
2022-09-06T06:05:00,mfh,51.53
2022-09-06T06:06:00,mfh,49.64
2022-09-06T06:07:00,mfh,49.53
2022-09-06T06:08:00,mfh,49.60
2022-09-06T06:09:00,mfh,49.98
2022-09-06T06:10:00,mfh,50.02
2022-09-06T06:11:00,mfh,50.56
2022-09-06T06:12:00,mfh,51.15
2022-09-06T06:13:00,mfh,51.28
2022-09-06T06:14:00,mfh,50.50
2022-09-06T06:15:00,mfh,50.65
2022-09-06T06:16:00,mfh,49.86
2022-09-06T06:17:00,mfh,49.70
2022-09-06T06:18:00,mfh,49.47
2022-09-06T06:19:00,mfh,51.18
2022-09-06T06:20:00,mfh,51.04
2022-09-06T06:21:00,mfh,50.35
2022-09-06T06:22:00,mfh,50.44
2022-09-06T06:23:00,mfh,51.21
2022-09-06T06:24:00,mfh,51.51
2022-09-06T06:25:00,mfh,51.43
2022-09-06T06:26:00,mfh,50.84
2022-09-06T06:27:00,mfh,50.87
2022-09-06T06:28:00,mfh,51.17
2022-09-06T06:29:00,mfh,51.97
2022-09-06T06:30:00,mfh,50.31
2022-09-06T06:31:00,mfh,50.18
2022-09-06T06:32:00,mfh,50.78
2022-09-06T06:33:00,mfh,51.97
2022-09-06T06:34:00,mfh,51.47
2022-09-06T06:35:00,mfh,50.05
2022-09-06T06:36:00,mfh,50.09
2022-09-06T06:37:00,mfh,49.60
2022-09-06T06:38:00,mfh,50.53
2022-09-06T06:39:00,mfh,50.90
2022-09-06T06:40:00,mfh,67.64
2022-09-06T06:41:00,mfh,70.02
2022-09-06T06:42:00,mfh,71.05
2022-09-06T06:43:00,mfh,70.05
2022-09-06T06:44:00,mfh,69.58
2022-09-06T06:45:00,mfh,68.58
2022-09-06T06:46:00,mfh,68.24
2022-09-06T06:47:00,mfh,69.53
2022-09-06T06:48:00,mfh,56.37
2022-09-06T06:49:00,mfh,57.05
2022-09-06T06:50:00,mfh,56.90
2022-09-06T06:51:00,mfh,56.87
2022-09-06T06:52:00,mfh,56.95
2022-09-06T06:53:00,mfh,56.91
2022-09-06T06:54:00,mfh,57.80
2022-09-06T06:55:00,mfh,55.36
2022-09-06T06:56:00,mfh,55.92
2022-09-06T06:57:00,mfh,55.91
2022-09-06T06:58:00,mfh,56.82
2022-09-06T06:59:00,mfh,56.52
2022-09-06T07:00:00,mfh,57.69
2022-09-06T07:01:00,mfh,57.97
2022-09-06T07:02:00,mfh,57.67
2022-09-06T07:03:00,mfh,58.12
2022-09-06T07:04:00,mfh,57.69
2022-09-06T07:05:00,mfh,57.80
2022-09-06T07:06:00,mfh,56.94
2022-09-06T07:07:00,mfh,57.90
2022-09-06T07:08:00,mfh,58.71
2022-09-06T07:09:00,mfh,60.02
2022-09-06T07:10:00,mfh,59.71
2022-09-06T07:11:00,mfh,60.36
2022-09-06T07:12:00,mfh,60.46
2022-09-06T07:13:00,mfh,59.75
2022-09-06T07:14:00,mfh,58.27
2022-09-06T07:15:00,mfh,57.22
2022-09-06T07:16:00,mfh,57.86
2022-09-06T07:17:00,mfh,57.89
2022-09-06T07:18:00,mfh,58.75
2022-09-06T07:19:00,mfh,58.11
2022-09-06T07:20:00,mfh,58.19
2022-09-06T07:21:00,mfh,58.93
2022-09-06T07:22:00,mfh,58.47
2022-09-06T07:23:00,mfh,58.59
2022-09-06T07:24:00,mfh,59.06
2022-09-06T07:25:00,mfh,58.05
2022-09-06T07:26:00,mfh,57.83
2022-09-06T07:27:00,mfh,57.85
2022-09-06T07:28:00,mfh,59.50
2022-09-06T07:29:00,mfh,59.11
2022-09-06T07:30:00,mfh,58.08
2022-09-06T07:31:00,mfh,57.80
2022-09-06T07:32:00,mfh,57.64
2022-09-06T07:33:00,mfh,57.61
2022-09-06T07:34:00,mfh,57.78
2022-09-06T07:35:00,mfh,57.32
2022-09-06T07:36:00,mfh,58.10
2022-09-06T07:37:00,mfh,57.50
2022-09-06T07:38:00,mfh,58.46
2022-09-06T07:39:00,mfh,57.62
2022-09-06T07:40:00,mfh,57.41
2022-09-06T07:41:00,mfh,57.63
2022-09-06T07:42:00,mfh,57.64
2022-09-06T07:43:00,mfh,58.60
2022-09-06T07:44:00,mfh,56.48
2022-09-06T07:45:00,mfh,56.55
2022-09-06T07:46:00,mfh,56.31
2022-09-06T07:47:00,mfh,57.03
2022-09-06T07:48:00,mfh,56.85
2022-09-06T07:49:00,mfh,56.84
2022-09-06T07:50:00,mfh,57.04
2022-09-06T07:51:00,mfh,57.07
2022-09-06T07:52:00,mfh,56.86
2022-09-06T07:53:00,mfh,57.22
2022-09-06T07:54:00,mfh,55.49
2022-09-06T07:55:00,mfh,56.07
2022-09-06T07:56:00,mfh,69.62
2022-09-06T07:57:00,mfh,72.02
2022-09-06T07:58:00,mfh,72.55
2022-09-06T07:59:00,mfh,76.99
2022-09-06T08:00:00,mfh,77.28
2022-09-06T08:01:00,mfh,77.70
2022-09-06T08:02:00,mfh,78.05
2022-09-06T08:03:00,mfh,77.86
2022-09-06T08:04:00,mfh,77.32
2022-09-06T08:05:00,mfh,69.69
2022-09-06T08:06:00,mfh,69.90
2022-09-06T08:07:00,mfh,70.06
2022-09-06T08:08:00,mfh,70.09
2022-09-06T08:09:00,mfh,69.96
2022-09-06T08:10:00,mfh,69.86
2022-09-06T08:11:00,mfh,70.48
2022-09-06T08:12:00,mfh,71.08
2022-09-06T08:13:00,mfh,63.91
2022-09-06T08:14:00,mfh,63.06
2022-09-06T08:15:00,mfh,63.82
2022-09-06T08:16:00,mfh,64.28
2022-09-06T08:17:00,mfh,64.53
2022-09-06T08:18:00,mfh,64.61
2022-09-06T08:19:00,mfh,64.93
2022-09-06T08:20:00,mfh,63.66
2022-09-06T08:21:00,mfh,63.05
2022-09-06T08:22:00,mfh,63.33
2022-09-06T08:23:00,mfh,62.94
2022-09-06T08:24:00,mfh,62.30
2022-09-06T08:25:00,mfh,62.21
2022-09-06T08:26:00,mfh,63.24
2022-09-06T08:27:00,mfh,63.09
2022-09-06T08:28:00,mfh,62.98
2022-09-06T08:29:00,mfh,62.86
2022-09-06T08:30:00,mfh,63.00
2022-09-06T08:31:00,mfh,62.99
2022-09-06T08:32:00,mfh,63.03
2022-09-06T08:33:00,mfh,64.16
2022-09-06T08:34:00,mfh,62.81
2022-09-06T08:35:00,mfh,62.58
2022-09-06T08:36:00,mfh,62.56
2022-09-06T08:37:00,mfh,63.26
2022-09-06T08:38:00,mfh,63.15
2022-09-06T08:39:00,mfh,63.26
2022-09-06T08:40:00,mfh,63.13
2022-09-06T08:41:00,mfh,63.25
2022-09-06T08:42:00,mfh,63.40
2022-09-06T08:43:00,mfh,64.42
2022-09-06T08:44:00,mfh,63.65
2022-09-06T08:45:00,mfh,63.52
2022-09-06T08:46:00,mfh,63.40
2022-09-06T08:47:00,mfh,64.35
2022-09-06T08:48:00,mfh,63.54
2022-09-06T08:49:00,mfh,63.64
2022-09-06T08:50:00,mfh,63.63
2022-09-06T08:51:00,mfh,64.19
2022-09-06T08:52:00,mfh,64.08
2022-09-06T08:53:00,mfh,64.09
2022-09-06T08:54:00,mfh,64.20
2022-09-06T08:55:00,mfh,64.13
2022-09-06T08:56:00,mfh,64.15
2022-09-06T08:57:00,mfh,64.27
2022-09-06T08:58:00,mfh,63.46
2022-09-06T08:59:00,mfh,63.85
2022-09-06T09:00:00,mfh,64.93
2022-09-06T09:01:00,mfh,65.62
2022-09-06T09:02:00,mfh,65.69
2022-09-06T09:03:00,mfh,65.96
2022-09-06T09:04:00,mfh,65.74
2022-09-06T09:05:00,mfh,65.69
2022-09-06T09:06:00,mfh,65.97
2022-09-06T09:07:00,mfh,66.03
2022-09-06T09:08:00,mfh,65.93
2022-09-06T09:09:00,mfh,72.19
2022-09-06T09:10:00,mfh,72.41
2022-09-06T09:11:00,mfh,72.81
2022-09-06T09:12:00,mfh,71.82
2022-09-06T09:13:00,mfh,72.93
2022-09-06T09:14:00,mfh,72.98
2022-09-06T09:15:00,mfh,72.65
2022-09-06T09:16:00,mfh,72.69
2022-09-06T09:17:00,mfh,72.01
2022-09-06T09:18:00,mfh,71.88
2022-09-06T09:19:00,mfh,71.91
2022-09-06T09:20:00,mfh,72.53
2022-09-06T09:21:00,mfh,72.50
2022-09-06T09:22:00,mfh,78.68
2022-09-06T09:23:00,mfh,79.69
2022-09-06T09:24:00,mfh,79.80
2022-09-06T09:25:00,mfh,80.24
2022-09-06T09:26:00,mfh,78.89
2022-09-06T09:27:00,mfh,78.87
2022-09-06T09:28:00,mfh,78.48
2022-09-06T09:29:00,mfh,77.81
2022-09-06T09:30:00,mfh,77.67
2022-09-06T09:31:00,mfh,78.60
2022-09-06T09:32:00,mfh,78.34
2022-09-06T09:33:00,mfh,78.42
2022-09-06T09:34:00,mfh,77.73
2022-09-06T09:35:00,mfh,77.62
2022-09-06T09:36:00,mfh,77.66
2022-09-06T09:37:00,mfh,77.58
2022-09-06T09:38:00,mfh,77.06
2022-09-06T09:39:00,mfh,76.94
2022-09-06T09:40:00,mfh,76.86
2022-09-06T09:41:00,mfh,77.50
2022-09-06T09:42:00,mfh,77.78
2022-09-06T09:43:00,mfh,70.62
2022-09-06T09:44:00,mfh,70.67
2022-09-06T09:45:00,mfh,70.70
2022-09-06T09:46:00,mfh,71.25
2022-09-06T09:47:00,mfh,74.25
2022-09-06T09:48:00,mfh,79.93
2022-09-06T09:49:00,mfh,80.05
2022-09-06T09:50:00,mfh,80.58
2022-09-06T09:51:00,mfh,79.47
2022-09-06T09:52:00,mfh,80.67
2022-09-06T09:53:00,mfh,80.59
2022-09-06T09:54:00,mfh,80.92
2022-09-06T09:55:00,mfh,79.68
2022-09-06T09:56:00,mfh,79.31
2022-09-06T09:57:00,mfh,80.08
2022-09-06T09:58:00,mfh,79.34
2022-09-06T09:59:00,mfh,79.47
2022-09-06T10:00:00,mfh,78.72
2022-09-06T10:01:00,mfh,79.43
2022-09-06T10:02:00,mfh,79.56
2022-09-06T10:03:00,mfh,79.34
2022-09-06T10:04:00,mfh,79.59
2022-09-06T10:05:00,mfh,79.35
2022-09-06T10:06:00,mfh,80.02
2022-09-06T10:07:00,mfh,78.91
2022-09-06T10:08:00,mfh,78.25
2022-09-06T10:09:00,mfh,78.24
2022-09-06T10:10:00,mfh,78.19
2022-09-06T10:11:00,mfh,78.26
2022-09-06T10:12:00,mfh,73.97
2022-09-06T10:13:00,mfh,73.88
2022-09-06T10:14:00,mfh,75.09
2022-09-06T10:15:00,mfh,73.17
2022-09-06T10:16:00,mfh,73.15
2022-09-06T10:17:00,mfh,73.93
2022-09-06T10:18:00,mfh,74.37
2022-09-06T10:19:00,mfh,75.16
2022-09-06T10:20:00,mfh,75.25
2022-09-06T10:21:00,mfh,74.72
2022-09-06T10:22:00,mfh,74.08
2022-09-06T10:23:00,mfh,79.14
2022-09-06T10:24:00,mfh,80.26
2022-09-06T10:25:00,mfh,80.46
2022-09-06T10:26:00,mfh,80.54
2022-09-06T10:27:00,mfh,80.43
2022-09-06T10:28:00,mfh,80.15
2022-09-06T10:29:00,mfh,79.26
2022-09-06T10:30:00,mfh,80.06
2022-09-06T10:31:00,mfh,80.44
2022-09-06T10:32:00,mfh,80.95
2022-09-06T10:33:00,mfh,80.89
2022-09-06T10:34:00,mfh,80.85
2022-09-06T10:35:00,mfh,80.25
2022-09-06T10:36:00,mfh,79.86
2022-09-06T10:37:00,mfh,79.87
2022-09-06T10:38:00,mfh,79.42
2022-09-06T10:39:00,mfh,79.30
2022-09-06T10:40:00,mfh,79.35
2022-09-06T10:41:00,mfh,79.96
2022-09-06T10:42:00,mfh,80.04
2022-09-06T10:43:00,mfh,80.05
2022-09-06T10:44:00,mfh,80.24
2022-09-06T10:45:00,mfh,80.19
2022-09-06T10:46:00,mfh,80.72
2022-09-06T10:47:00,mfh,80.85
2022-09-06T10:48:00,mfh,80.59
2022-09-06T10:49:00,mfh,80.36
2022-09-06T10:50:00,mfh,74.10
2022-09-06T10:51:00,mfh,75.00
2022-09-06T10:52:00,mfh,74.05
2022-09-06T10:53:00,mfh,80.61
2022-09-06T10:54:00,mfh,80.89
2022-09-06T10:55:00,mfh,81.60
2022-09-06T10:56:00,mfh,82.07
2022-09-06T10:57:00,mfh,82.02
2022-09-06T10:58:00,mfh,81.27
2022-09-06T10:59:00,mfh,81.34
2022-09-06T11:00:00,mfh,81.69
2022-09-06T11:01:00,mfh,81.47
2022-09-06T11:02:00,mfh,81.55
2022-09-06T11:03:00,mfh,81.45
2022-09-06T11:04:00,mfh,81.65
2022-09-06T11:05:00,mfh,86.72
2022-09-06T11:06:00,mfh,87.24
2022-09-06T11:07:00,mfh,86.93
2022-09-06T11:08:00,mfh,86.71
2022-09-06T11:09:00,mfh,86.69
2022-09-06T11:10:00,mfh,86.84
2022-09-06T11:11:00,mfh,86.73
2022-09-06T11:12:00,mfh,85.61
2022-09-06T11:13:00,mfh,85.38
2022-09-06T11:14:00,mfh,85.54
2022-09-06T11:15:00,mfh,85.67
2022-09-06T11:16:00,mfh,85.51
2022-09-06T11:17:00,mfh,85.35
2022-09-06T11:18:00,mfh,85.39
2022-09-06T11:19:00,mfh,85.63
2022-09-06T11:20:00,mfh,85.50
2022-09-06T11:21:00,mfh,85.65
2022-09-06T11:22:00,mfh,85.53
2022-09-06T11:23:00,mfh,85.48
2022-09-06T11:24:00,mfh,85.28
2022-09-06T11:25:00,mfh,84.91
2022-09-06T11:26:00,mfh,85.18
2022-09-06T11:27:00,mfh,85.32
2022-09-06T11:28:00,mfh,85.52
2022-09-06T11:29:00,mfh,85.11
2022-09-06T11:30:00,mfh,85.31
2022-09-06T11:31:00,mfh,85.02
2022-09-06T11:32:00,mfh,84.92
2022-09-06T11:33:00,mfh,85.59
2022-09-06T11:34:00,mfh,84.99
2022-09-06T11:35:00,mfh,85.07
2022-09-06T11:36:00,mfh,85.58
2022-09-06T11:37:00,mfh,85.31
2022-09-06T11:38:00,mfh,85.52
2022-09-06T11:39:00,mfh,81.59
2022-09-06T11:40:00,mfh,81.99
2022-09-06T11:41:00,mfh,81.95
2022-09-06T11:42:00,mfh,82.31
2022-09-06T11:43:00,mfh,82.11
2022-09-06T11:44:00,mfh,77.61
2022-09-06T11:45:00,mfh,82.99
2022-09-06T11:46:00,mfh,83.24
2022-09-06T11:47:00,mfh,83.32
2022-09-06T11:48:00,mfh,83.06
2022-09-06T11:49:00,mfh,82.65
2022-09-06T11:50:00,mfh,82.59
2022-09-06T11:51:00,mfh,83.06
2022-09-06T11:52:00,mfh,82.83
2022-09-06T11:53:00,mfh,83.05
2022-09-06T11:54:00,mfh,76.93
2022-09-06T11:55:00,mfh,73.82
2022-09-06T11:56:00,mfh,72.61
2022-09-06T11:57:00,mfh,73.90
2022-09-06T11:58:00,mfh,72.26
2022-09-06T11:59:00,mfh,72.66
2022-09-06T12:00:00,mfh,72.00
2022-09-06T12:01:00,mfh,71.74
2022-09-06T12:02:00,mfh,71.76
2022-09-06T12:03:00,mfh,63.84
2022-09-06T12:04:00,mfh,64.55
2022-09-06T12:05:00,mfh,64.72
2022-09-06T12:06:00,mfh,65.62
2022-09-06T12:07:00,mfh,64.84
2022-09-06T12:08:00,mfh,64.53
2022-09-06T12:09:00,mfh,64.40
2022-09-06T12:10:00,mfh,62.99
2022-09-06T12:11:00,mfh,63.22
2022-09-06T12:12:00,mfh,64.87
2022-09-06T12:13:00,mfh,65.40
2022-09-06T12:14:00,mfh,64.30
2022-09-06T12:15:00,mfh,63.77
2022-09-06T12:16:00,mfh,63.98
2022-09-06T12:17:00,mfh,63.84
2022-09-06T12:18:00,mfh,63.59
2022-09-06T12:19:00,mfh,63.36
2022-09-06T12:20:00,mfh,62.71
2022-09-06T12:21:00,mfh,62.83
2022-09-06T12:22:00,mfh,63.32
2022-09-06T12:23:00,mfh,63.95
2022-09-06T12:24:00,mfh,62.90
2022-09-06T12:25:00,mfh,63.03
2022-09-06T12:26:00,mfh,63.58
2022-09-06T12:27:00,mfh,62.90
2022-09-06T12:28:00,mfh,61.94
2022-09-06T12:29:00,mfh,62.15
2022-09-06T12:30:00,mfh,62.02
2022-09-06T12:31:00,mfh,62.59
2022-09-06T12:32:00,mfh,62.61
2022-09-06T12:33:00,mfh,62.64
2022-09-06T12:34:00,mfh,64.06
2022-09-06T12:35:00,mfh,64.25
2022-09-06T12:36:00,mfh,62.53
2022-09-06T12:37:00,mfh,62.42
2022-09-06T12:38:00,mfh,63.39
2022-09-06T12:39:00,mfh,62.33
2022-09-06T12:40:00,mfh,61.52
2022-09-06T12:41:00,mfh,63.10
2022-09-06T12:42:00,mfh,64.53
2022-09-06T12:43:00,mfh,77.12
2022-09-06T12:44:00,mfh,78.35
2022-09-06T12:45:00,mfh,79.14
2022-09-06T12:46:00,mfh,78.08
2022-09-06T12:47:00,mfh,77.61
2022-09-06T12:48:00,mfh,78.55
2022-09-06T12:49:00,mfh,77.98
2022-09-06T12:50:00,mfh,78.42
2022-09-06T12:51:00,mfh,78.97
2022-09-06T12:52:00,mfh,79.07
2022-09-06T12:53:00,mfh,79.29
2022-09-06T12:54:00,mfh,73.35
2022-09-06T12:55:00,mfh,72.63
2022-09-06T12:56:00,mfh,73.15
2022-09-06T12:57:00,mfh,72.80
2022-09-06T12:58:00,mfh,71.97
2022-09-06T12:59:00,mfh,72.33
2022-09-06T13:00:00,mfh,72.12
2022-09-06T13:01:00,mfh,71.87
2022-09-06T13:02:00,mfh,71.72
2022-09-06T13:03:00,mfh,71.67
2022-09-06T13:04:00,mfh,72.14
2022-09-06T13:05:00,mfh,72.41
2022-09-06T13:06:00,mfh,72.22
2022-09-06T13:07:00,mfh,73.81
2022-09-06T13:08:00,mfh,73.21
2022-09-06T13:09:00,mfh,73.26
2022-09-06T13:10:00,mfh,66.64
2022-09-06T13:11:00,mfh,66.06
2022-09-06T13:12:00,mfh,66.35
2022-09-06T13:13:00,mfh,66.31
2022-09-06T13:14:00,mfh,65.77
2022-09-06T13:15:00,mfh,65.49
2022-09-06T13:16:00,mfh,65.64
2022-09-06T13:17:00,mfh,75.17
2022-09-06T13:18:00,mfh,74.97
2022-09-06T13:19:00,mfh,74.77